Bartow, FL

1:32 AM EST on December 06, 2016 (GMT -0500)
Bartow Municipal

Weather History for KBOW - September, 2011

Change the Weather History Date:

Sunday, September 4, 2011

  Actual Average Record
Temperature  
Mean Temperature 81 °F -  
Max Temperature 91 °F 91 °F 98 °F (1931)
Min Temperature 71 °F 71 °F 65 °F (1975)
Cooling Degree Days 16    
Growing Degree Days 31 (Base 50)    
Moisture  
Dew Point 73 °F    
Average Humidity 84    
Maximum Humidity 100    
Minimum Humidity 52    
Precipitation  
Precipitation 0.00 in - - ()
Sea Level Pressure  
Sea Level Pressure 29.91 in    
Wind  
Wind Speed 2 mph (SE)    
Max Wind Speed 17 mph    
Max Gust Speed 22 mph    
Visibility 8 miles    
Events      
Averages and records for this station are not official NWS values.
T = Trace of Precipitation, MM = Missing Value Source: NWS Daily Summary

Daily Weather History Graph

Daily Weather History Graph

Search for Another Location

Airport or City:

Trip Planner

Search our weather history database for the weather conditions in past years. The results will help you decide how hot, cold, wet, or windy it might be!

Date:

Astronomy

Sep. 04, 2011 Rise Set
Actual Time 7:07 AM EDT 7:44 PM EDT
Civil Twilight 6:43 AM EDT 8:08 PM EDT
Nautical Twilight 6:15 AM EDT 8:36 PM EDT
Astronomical Twilight 5:46 AM EDT 9:04 PM EDT
Moon 2:07 PM EDT (9/4) No Moon Set
Length of Visible Light 13h 25m
Length of Day
12h 37m
Waxing Crescent, 49% of the Moon is Illuminated
Sep 4
Waxing Crescent
Sep 4
First Quarter
Sep 12
Full
Sep 20
Last Quarter
Sep 27
New

Hourly Weather History & Observations

Time (EDT) Temp. Heat Index Dew Point Humidity Pressure Visibility Wind Dir Wind Speed Gust Speed Precip Events Conditions
12:15 AM 75.2 °F - 73.4 °F 94% 29.94 in 10.0 mi Calm Calm - N/A   Clear
12:35 AM 73.4 °F - 73.4 °F 100% 29.94 in 10.0 mi Calm Calm - N/A   Clear
1:15 AM 73.4 °F - 73.4 °F 100% 29.94 in 10.0 mi Calm Calm - N/A   Partly Cloudy
1:35 AM 73.4 °F - 73.4 °F 100% 29.94 in 10.0 mi Calm Calm - N/A   Scattered Clouds
1:55 AM 73.4 °F - 73.4 °F 100% 29.93 in 10.0 mi Calm Calm - N/A   Partly Cloudy
2:15 AM 73.4 °F - 73.4 °F 100% 29.92 in 4.0 mi Calm Calm - N/A   Clear
2:35 AM 73.4 °F - 73.4 °F 100% 29.91 in 10.0 mi Calm Calm - N/A   Partly Cloudy
2:55 AM 73.4 °F - 73.4 °F 100% 29.91 in 10.0 mi Calm Calm - N/A   Partly Cloudy
3:15 AM 73.4 °F - 73.4 °F 100% 29.90 in 10.0 mi Calm Calm - N/A   Partly Cloudy
3:35 AM 71.6 °F - 71.6 °F 100% 29.89 in 10.0 mi Calm Calm - N/A   Partly Cloudy
3:55 AM 71.6 °F - 71.6 °F 100% 29.89 in 10.0 mi Calm Calm - N/A   Partly Cloudy
4:15 AM 73.4 °F - 73.4 °F 100% 29.89 in 10.0 mi Calm Calm - N/A   Clear
4:35 AM 73.4 °F - 73.4 °F 100% 29.89 in 9.0 mi ENE 4.6 mph - N/A   Clear
4:55 AM 73.4 °F - 73.4 °F 100% 29.89 in 4.0 mi Calm Calm - N/A   Clear
5:15 AM 73.4 °F - 73.4 °F 100% 29.88 in 8.0 mi Calm Calm - N/A   Clear
5:35 AM 73.4 °F - 73.4 °F 100% 29.88 in 9.0 mi Calm Calm - N/A   Clear
5:55 AM 73.4 °F - 73.4 °F 100% 29.89 in 10.0 mi Calm Calm - N/A   Clear
6:15 AM 73.4 °F - 73.4 °F 100% 29.89 in 10.0 mi Calm Calm - N/A   Clear
6:35 AM 73.4 °F - 73.4 °F 100% 29.90 in 9.0 mi Calm Calm - N/A   Clear
7:15 AM 73.4 °F - 73.4 °F 100% 29.92 in 7.0 mi Calm Calm - N/A   Clear
7:35 AM 73.4 °F - 73.4 °F 100% 29.93 in 5.0 mi Calm Calm - N/A   Clear
7:55 AM 73.4 °F - 73.4 °F 100% 29.93 in 5.0 mi Calm Calm - N/A   Partly Cloudy
8:15 AM 73.4 °F - 73.4 °F 100% 29.93 in 5.0 mi ESE 3.5 mph - N/A   Partly Cloudy
8:35 AM 75.2 °F - - N/A% 29.93 in 5.0 mi ESE 5.8 mph - N/A   Haze
8:55 AM 75.2 °F - - N/A% 29.93 in 3.0 mi ESE 5.8 mph - N/A   Scattered Clouds
9:15 AM 77.0 °F - - N/A% 29.93 in 5.0 mi SE 6.9 mph - N/A   Haze
9:35 AM 78.8 °F - - N/A% 29.93 in 5.0 mi ESE 8.1 mph - N/A   Haze
9:55 AM 78.8 °F - 78.8 °F 100% 29.94 in 5.0 mi ESE 9.2 mph - N/A   Mostly Cloudy
10:15 AM 80.6 °F 86.2 °F 75.2 °F 84% 29.94 in 5.0 mi SE 9.2 mph - N/A   Mostly Cloudy
10:35 AM 80.6 °F 86.2 °F 75.2 °F 84% 29.94 in 4.0 mi ESE 6.9 mph - N/A   Haze
10:55 AM 80.6 °F 85.4 °F 73.4 °F 79% 29.95 in 8.0 mi ESE 6.9 mph - N/A   Clear
11:15 AM 80.6 °F 85.4 °F 73.4 °F 79% 29.95 in 5.0 mi ESE 5.8 mph - N/A   Haze
11:35 AM 82.4 °F 88.2 °F 73.4 °F 74% 29.95 in 8.0 mi SE 6.9 mph - N/A   Partly Cloudy
12:15 PM 84.2 °F 90.9 °F 73.4 °F 70% 29.94 in 9.0 mi ESE 6.9 mph - N/A   Partly Cloudy
12:35 PM 86.0 °F 93.4 °F 73.4 °F 66% 29.94 in 9.0 mi SSE 8.1 mph - N/A   Clear
12:55 PM 89.6 °F 98.2 °F 73.4 °F 59% 29.93 in 8.0 mi SSE 9.2 mph - N/A   Clear
1:15 PM 89.6 °F 98.2 °F 73.4 °F 59% 29.93 in 3.0 mi SE 9.2 mph - N/A   Haze
1:35 PM 89.6 °F 98.2 °F 73.4 °F 59% 29.92 in 4.0 mi ESE 9.2 mph - N/A   Haze
1:55 PM 89.6 °F 98.2 °F 73.4 °F 59% 29.91 in 5.0 mi SE 8.1 mph - N/A   Haze
2:15 PM 89.6 °F 98.2 °F 73.4 °F 59% 29.91 in 7.0 mi SE 5.8 mph - N/A   Partly Cloudy
2:35 PM 89.6 °F 98.2 °F 73.4 °F 59% 29.90 in 8.0 mi ESE 5.8 mph - N/A   Scattered Clouds
2:55 PM 89.6 °F 98.2 °F 73.4 °F 59% 29.90 in 9.0 mi ESE 4.6 mph - N/A   Partly Cloudy
3:15 PM 91.4 °F 100.1 °F 73.4 °F 55% 29.89 in 9.0 mi SE 4.6 mph - N/A   Mostly Cloudy
3:35 PM 87.8 °F 93.8 °F 71.6 °F 58% 29.89 in 4.0 mi Calm Calm - N/A   Haze
3:55 PM 87.8 °F 99.7 °F 77.0 °F 70% 29.88 in 8.0 mi Calm Calm - N/A   Mostly Cloudy
4:15 PM 87.8 °F 91.4 °F 68.0 °F 52% 29.88 in 9.0 mi SW 17.3 mph 21.9 mph N/A   Mostly Cloudy
4:35 PM 82.4 °F 85.4 °F 68.0 °F 62% 29.88 in 10.0 mi WSW 13.8 mph - N/A   Scattered Clouds
4:55 PM 82.4 °F 85.4 °F 68.0 °F 62% 29.87 in 10.0 mi Calm Calm - N/A   Partly Cloudy
5:15 PM 82.4 °F 86.3 °F 69.8 °F 66% 29.87 in 10.0 mi SSE 3.5 mph - N/A   Partly Cloudy
5:35 PM 84.2 °F 88.4 °F 69.8 °F 62% 29.87 in 10.0 mi Calm Calm - N/A   Partly Cloudy
5:55 PM 84.2 °F 87.3 °F 68.0 °F 58% 29.87 in 10.0 mi Calm Calm - N/A   Partly Cloudy
6:15 PM 84.2 °F 88.4 °F 69.8 °F 62% 29.88 in 10.0 mi Calm Calm - N/A   Partly Cloudy
6:35 PM 82.4 °F 87.2 °F 71.6 °F 70% 29.88 in 10.0 mi NE 3.5 mph - N/A   Partly Cloudy
7:15 PM 80.6 °F 83.9 °F 69.8 °F 70% 29.87 in 10.0 mi Calm Calm - N/A   Clear
7:35 PM 80.6 °F 84.6 °F 71.6 °F 74% 29.88 in 10.0 mi Calm Calm - N/A   Clear
8:15 PM 78.8 °F - 71.6 °F 78% 29.88 in 10.0 mi Calm Calm - N/A   Partly Cloudy
8:35 PM 78.8 °F - 73.4 °F 83% 29.89 in 10.0 mi East 6.9 mph - N/A   Clear
8:55 PM 78.8 °F - 73.4 °F 83% 29.89 in 10.0 mi Calm Calm - N/A   Clear
9:15 PM 78.8 °F - 73.4 °F 83% 29.90 in 10.0 mi Calm Calm - N/A   Partly Cloudy
9:35 PM 78.8 °F - 73.4 °F 83% 29.91 in 10.0 mi Calm Calm - N/A   Partly Cloudy
9:55 PM 77.0 °F - 73.4 °F 89% 29.92 in 10.0 mi Calm Calm - N/A   Partly Cloudy
10:15 PM 77.0 °F - 73.4 °F 89% 29.92 in 10.0 mi Calm Calm - N/A   Clear
10:35 PM 75.2 °F - 73.4 °F 94% 29.92 in 10.0 mi ESE 5.8 mph - N/A   Clear
10:55 PM 75.2 °F - 73.4 °F 94% 29.92 in 10.0 mi ESE 6.9 mph - N/A   Clear
11:15 PM 75.2 °F - 73.4 °F 94% 29.92 in 10.0 mi SE 5.8 mph - N/A   Partly Cloudy
11:35 PM 75.2 °F - 73.4 °F 94% 29.92 in 10.0 mi Calm Calm - N/A   Scattered Clouds
11:55 PM 73.4 °F - 73.4 °F 100% 29.91 in 10.0 mi Calm Calm - N/A   Partly Cloudy